Regional Weather Roundup
Issued by NWS

Home | Current Version | Previous Version | Graphics & Text | Print | Product List | Glossary On
Versions: 1 2 3 4 5 6 7 8 9 10 11 12 13 14 15 16 17 18 19 20 21 22 23 24 25 26 27 28 29 30 31 32 33 34 35 36 37 38 39 40 41 42 43 44 45 46 47 48 49 50
552
ASUS44 KLIX 192001
RWRLA
LOUISIANA WEATHER ROUNDUP
NATIONAL WEATHER SERVICE NEW ORLEANS LA
200 PM CST FRI DEC 19 2014

NOTE: "FAIR" INDICATES FEW OR NO CLOUDS BELOW 12,000 FEET WITH NO
      SIGNIFICANT WEATHER AND/OR OBSTRUCTIONS TO VISIBILITY.
      SKY/WX - SKY CONDITION AND SIGNIFICANT WEATHER.
      TMP - AIR TEMPERATURE.    DP   - DEWPOINT TEMPERATURE.
      RH  - RELATIVE HUMIDITY.  PRES - PRESSURE.
      HX  - HEAT INDEX.         WCI  - WIND CHILL INDEX.

*  THESE STATIONS ARE NOT NWS OR FAA STATIONS AND ARE NOT UNDER
   NWS QUALITY CONTROL.

LAZ040-048-061>063-065-066-069-192100-
SOUTHEAST LOUISIANA

CITY           SKY/WX    TMP DP  RH WIND       PRES   REMARKS
N.O. AUDUBON   NOT AVBL
N.O. INTL ARPT LGT RAIN  54  52  93 E10       30.05F FOG
N.O. LAKEFRONT RAIN      55  51  86 E14       30.07F FOG
N.O. DOWNTOWN* CLOUDY    54  48  82 E7        30.06F
SLIDELL        RAIN      50  48  93 N5        30.09R FOG
BATON ROUGE    LGT RAIN  53  51  93 NE8       30.06F
BOOTHVILLE     LGT RAIN  60  59  96 SE5       30.03F FOG
BELLE CHASSE   RAIN      54  54 100 NE12      30.06F FOG
BOGALUSA*      RAIN      49  45  87 NE5       30.12R
GALLIANO*      NOT AVBL
NEW ROADS*     NOT AVBL
GONZALES*      NOT AVBL
HAMMOND*       NOT AVBL
HOUMA*         CLOUDY    55  55 100 E9        30.02F FOG
PORT FOURCHON* CLOUDY    63  61  94 E8G14     30.05F FOG

$$

LAZ041-044-053-054-192100-
SOUTHWEST LOUISIANA

CITY           SKY/WX    TMP DP  RH WIND       PRES   REMARKS
LAKE CHARLES   LGT RAIN  57  55  93 NE16      30.02F
LAFAYETTE      RAIN      57  56  96 NE13      30.02F FOG
PATTERSON      CLOUDY    55  55 100 E7        30.02F
SALT POINT       N/A     60  56  86 VRB5      30.00F
NEW IBERIA     CLOUDY    58  55  90 NE8       30.03F
CHENAULT AIRPK NOT AVBL

$$

LAZ027-028-192100-
CENTRAL LOUISIANA

CITY           SKY/WX    TMP DP  RH WIND       PRES   REMARKS
FORT POLK      LGT RAIN  51  49  96 N8        30.07S
ALEXANDRIA INT LGT RAIN  51  49  92 N9        30.08F
ALEXANDRIA     LGT RAIN  50  48  93 VRB7      30.09F

$$

LAZ001-002-192100-
NORTHWEST LOUISIANA

CITY           SKY/WX    TMP DP  RH WIND       PRES   REMARKS
SHREVEPORT     CLOUDY    50  47  89 NE9       30.09R
BARKSDALE AFB  NOT AVBL
DTN SHREVEPORT CLOUDY    48  44  86 NW8       30.11R

$$

LAZ014-016-192100-
NORTHEAST LOUISIANA

CITY           SKY/WX    TMP DP  RH WIND       PRES   REMARKS
MONROE         LGT RAIN  46  45  96 NE12      30.17F FOG
TALLULAH       LGT RAIN  47  44  90 NE12      30.15F

$$




USA.gov is the U.S. government's official web portal to all federal, state and local government web resources and services.